When you browse on this site, cookies collect data to enhance your experience and personalize the content and advertising you see.
Visit our Privacy Policy to learn more. By continuing to use the site, you agree to this use of cookies and data.
  • în România
  • Lista ţărilor
  • Pe 7 zile
  • Temperatura apei
  • Hartă satelitară
  • Meteo pe hartă
  • Widget-uri
  • user-avatar
    Intrare

    Meteo pe oră la Abutkovo

    Astăzi, 20 Februarie, Miercuri

    Timp Temperatura Precipitaţii Vânt Presiune Umiditate
    00:00 -2°C° 0 mm 6 m/s 734 mmHg 88%
    01:00 -2°C° 0 mm 6 m/s 733 mmHg 89%
    02:00 -1°C° 0 mm 7 m/s 732 mmHg 91%
    03:00 -1°C° 0 mm 6 m/s 732 mmHg 92%
    04:00 -1°C° 0 mm 6 m/s 732 mmHg 93%
    05:00 0°C° 0 mm 5 m/s 731 mmHg 94%
    06:00 0°C° 0 mm 5 m/s 731 mmHg 94%
    07:00 0°C° 0 mm 5 m/s 731 mmHg 93%
    08:00 0°C° 0 mm 5 m/s 731 mmHg 93%
    09:00 0°C° 0 mm 5 m/s 731 mmHg 93%
    10:00 0°C° 0 mm 5 m/s 731 mmHg 93%
    11:00 0°C° 0 mm 5 m/s 730 mmHg 92%
    12:00 0°C° 0.1 mm 5 m/s 730 mmHg 92%
    13:00 0°C° 0.1 mm 5 m/s 730 mmHg 91%
    14:00 0°C° 0.1 mm 5 m/s 730 mmHg 90%
    15:00 0°C° 0 mm 5 m/s 730 mmHg 90%
    16:00 0°C° 0 mm 5 m/s 729 mmHg 90%
    17:00 0°C° 0 mm 5 m/s 729 mmHg 89%
    18:00 0°C° 0.2 mm 5 m/s 729 mmHg 89%
    19:00 0°C° 0.2 mm 5 m/s 728 mmHg 89%
    20:00 0°C° 0.2 mm 5 m/s 728 mmHg 88%
    21:00 -1°C° 0.4 mm 5 m/s 728 mmHg 87%
    22:00 -1°C° 0.4 mm 5 m/s 728 mmHg 86%
    23:00 -1°C° 0.4 mm 5 m/s 727 mmHg 85%

    Mâine, 21 Februarie, Joi

    Timp Temperatura Precipitaţii Vânt Presiune Umiditate
    00:00 -4°C° 0.1 mm 5 m/s 728 mmHg 86%
    01:00 -5°C° 0.1 mm 5 m/s 728 mmHg 87%
    02:00 -6°C° 0.1 mm 5 m/s 728 mmHg 88%
    03:00 -7°C° 0.1 mm 5 m/s 729 mmHg 86%
    04:00 -7°C° 0.1 mm 5 m/s 729 mmHg 83%
    05:00 -8°C° 0.1 mm 5 m/s 729 mmHg 81%
    06:00 -8°C° 0.2 mm 5 m/s 729 mmHg 82%
    07:00 -7°C° 0.2 mm 5 m/s 730 mmHg 83%
    08:00 -8°C° 0.2 mm 6 m/s 730 mmHg 84%
    09:00 -8°C° 0.3 mm 6 m/s 731 mmHg 85%
    10:00 -8°C° 0.3 mm 6 m/s 731 mmHg 86%
    11:00 -6°C° 0.3 mm 6 m/s 732 mmHg 86%
    12:00 -7°C° 0.3 mm 7 m/s 733 mmHg 84%
    13:00 -8°C° 0.3 mm 7 m/s 733 mmHg 82%
    14:00 -8°C° 0.3 mm 8 m/s 734 mmHg 80%
    15:00 -9°C° 0.1 mm 7 m/s 735 mmHg 80%
    16:00 -9°C° 0.1 mm 7 m/s 736 mmHg 80%
    17:00 -11°C° 0.1 mm 7 m/s 737 mmHg 80%
    18:00 -12°C° 0.1 mm 7 m/s 738 mmHg 80%
    19:00 -12°C° 0.1 mm 7 m/s 739 mmHg 79%
    20:00 -13°C° 0.1 mm 7 m/s 740 mmHg 78%
    21:00 -13°C° 0 mm 7 m/s 740 mmHg 78%
    22:00 -14°C° 0 mm 6 m/s 741 mmHg 77%
    23:00 -15°C° 0 mm 6 m/s 741 mmHg 77%

    Poimâine, 22 Februarie, Vineri

    Timp Temperatura Precipitaţii Vânt Presiune Umiditate
    00:00 -15°C° 0 mm 6 m/s 742 mmHg 77%
    01:00 -15°C° 0 mm 6 m/s 742 mmHg 77%
    02:00 -15°C° 0 mm 6 m/s 742 mmHg 77%
    03:00 -15°C° 0 mm 6 m/s 743 mmHg 77%
    04:00 -15°C° 0 mm 7 m/s 743 mmHg 76%
    05:00 -17°C° 0 mm 7 m/s 744 mmHg 76%
    06:00 -17°C° 0 mm 7 m/s 744 mmHg 77%
    07:00 -17°C° 0 mm 7 m/s 744 mmHg 77%
    08:00 -17°C° 0 mm 7 m/s 745 mmHg 77%
    09:00 -17°C° 0.1 mm 7 m/s 745 mmHg 76%
    10:00 -17°C° 0.1 mm 7 m/s 745 mmHg 75%
    11:00 -16°C° 0.1 mm 8 m/s 746 mmHg 74%
    12:00 -16°C° 0.1 mm 8 m/s 746 mmHg 74%
    13:00 -15°C° 0.1 mm 8 m/s 746 mmHg 74%
    14:00 -15°C° 0.1 mm 8 m/s 746 mmHg 74%
    15:00 -15°C° 0.1 mm 8 m/s 747 mmHg 76%
    16:00 -14°C° 0.1 mm 7 m/s 747 mmHg 78%
    17:00 -14°C° 0.1 mm 7 m/s 748 mmHg 80%
    18:00 -14°C° 0.1 mm 7 m/s 748 mmHg 80%
    19:00 -14°C° 0.1 mm 7 m/s 749 mmHg 79%
    20:00 -14°C° 0.1 mm 7 m/s 750 mmHg 78%
    21:00 -15°C° 0 mm 7 m/s 750 mmHg 79%
    22:00 -16°C° 0 mm 6 m/s 751 mmHg 79%
    23:00 -16°C° 0 mm 6 m/s 751 mmHg 80%

    23 Februarie, Sâmbătă

    Timp Temperatura Precipitaţii Vânt Presiune Umiditate
    00:00 -16°C° 0 mm 6 m/s 752 mmHg 81%
    01:00 -17°C° 0 mm 5 m/s 752 mmHg 82%
    02:00 -17°C° 0 mm 5 m/s 753 mmHg 83%
    03:00 -17°C° 0 mm 5 m/s 753 mmHg 84%
    04:00 -17°C° 0 mm 5 m/s 753 mmHg 85%
    05:00 -18°C° 0 mm 5 m/s 754 mmHg 86%
    06:00 -18°C° 0 mm 5 m/s 754 mmHg 87%
    07:00 -17°C° 0 mm 4 m/s 754 mmHg 88%
    08:00 -17°C° 0 mm 4 m/s 755 mmHg 88%
    09:00 -16°C° 0 mm 4 m/s 755 mmHg 86%
    10:00 -15°C° 0 mm 4 m/s 755 mmHg 83%
    11:00 -15°C° 0 mm 4 m/s 755 mmHg 81%
    12:00 -14°C° 0 mm 4 m/s 755 mmHg 78%
    13:00 -12°C° 0 mm 3 m/s 755 mmHg 76%
    14:00 -10°C° 0 mm 3 m/s 755 mmHg 74%
    15:00 -12°C° 0 mm 3 m/s 755 mmHg 76%
    16:00 -10°C° 0 mm 2 m/s 755 mmHg 79%
    17:00 -10°C° 0 mm 2 m/s 755 mmHg 82%
    18:00 -12°C° 0 mm 2 m/s 755 mmHg 83%
    19:00 -12°C° 0 mm 2 m/s 755 mmHg 84%
    20:00 -12°C° 0 mm 2 m/s 754 mmHg 85%
    21:00 -10°C° 0 mm 2 m/s 754 mmHg 85%
    22:00 -10°C° 0 mm 2 m/s 754 mmHg 85%
    23:00 -10°C° 0 mm 2 m/s 754 mmHg 85%

    24 Februarie, Duminică

    Timp Temperatura Precipitaţii Vânt Presiune Umiditate
    00:00 -10°C° 0 mm 2 m/s 754 mmHg 87%
    01:00 -9°C° 0 mm 2 m/s 753 mmHg 88%
    02:00 -9°C° 0 mm 2 m/s 753 mmHg 90%
    03:00 -9°C° 0.1 mm 2 m/s 753 mmHg 92%
    04:00 -9°C° 0.1 mm 2 m/s 753 mmHg 93%
    05:00 -9°C° 0.1 mm 2 m/s 752 mmHg 95%
    06:00 -9°C° 0.1 mm 2 m/s 753 mmHg 94%
    07:00 -8°C° 0.1 mm 2 m/s 753 mmHg 94%
    08:00 -8°C° 0.1 mm 2 m/s 753 mmHg 93%
    09:00 -7°C° 0 mm 2 m/s 753 mmHg 92%
    10:00 -6°C° 0 mm 2 m/s 753 mmHg 91%
    11:00 -5°C° 0 mm 2 m/s 753 mmHg 89%
    12:00 -2°C° 0 mm 1 m/s 753 mmHg 89%
    13:00 -2°C° 0 mm 1 m/s 753 mmHg 89%
    14:00 -1°C° 0 mm 1 m/s 753 mmHg 89%
    15:00 -1°C° 0 mm 1 m/s 753 mmHg 91%
    16:00 -1°C° 0 mm 1 m/s 753 mmHg 93%
    17:00 -2°C° 0 mm 1 m/s 753 mmHg 95%
    18:00 -2°C° 0 mm 1 m/s 753 mmHg 95%
    19:00 -2°C° 0 mm 1 m/s 753 mmHg 95%
    20:00 -3°C° 0 mm 1 m/s 753 mmHg 95%
    21:00 -2°C° 0 mm 1 m/s 753 mmHg 95%
    22:00 -2°C° 0 mm 1 m/s 753 mmHg 95%
    23:00 -2°C° 0 mm 1 m/s 753 mmHg 96%

    25 Februarie, Luni

    Timp Temperatura Precipitaţii Vânt Presiune Umiditate
    00:00 -4°C° 0 mm 2 m/s 753 mmHg 95%
    01:00 -5°C° 0 mm 2 m/s 753 mmHg 95%
    02:00 -5°C° 0 mm 2 m/s 752 mmHg 95%
    03:00 -6°C° 0 mm 3 m/s 752 mmHg 95%
    04:00 -6°C° 0 mm 3 m/s 751 mmHg 95%
    05:00 -6°C° 0 mm 3 m/s 750 mmHg 95%
    06:00 -5°C° 0 mm 4 m/s 750 mmHg 93%
    07:00 -5°C° 0 mm 4 m/s 749 mmHg 92%
    08:00 -5°C° 0 mm 5 m/s 749 mmHg 90%
    09:00 -4°C° 0 mm 5 m/s 748 mmHg 90%
    10:00 -4°C° 0 mm 5 m/s 748 mmHg 90%
    11:00 -2°C° 0 mm 5 m/s 747 mmHg 90%
    12:00 -2°C° 0.1 mm 4 m/s 747 mmHg 91%
    13:00 -1°C° 0.1 mm 4 m/s 746 mmHg 91%
    14:00 -1°C° 0.1 mm 4 m/s 746 mmHg 91%
    15:00 -1°C° 0 mm 4 m/s 746 mmHg 89%
    16:00 -2°C° 0 mm 4 m/s 745 mmHg 87%
    17:00 -2°C° 0 mm 4 m/s 745 mmHg 85%
    18:00 -3°C° 0 mm 4 m/s 745 mmHg 87%
    19:00 -4°C° 0 mm 3 m/s 745 mmHg 89%
    20:00 -5°C° 0 mm 3 m/s 745 mmHg 91%
    21:00 -5°C° 0 mm 3 m/s 745 mmHg 92%
    22:00 -5°C° 0 mm 3 m/s 745 mmHg 92%
    23:00 -6°C° 0 mm 3 m/s 745 mmHg 93%
    Arată mai mult